MSC3609 HEGN-EPKT

Flight info

Callsign MSC3609
Flight time N/A
Altitude 34000
Route SOLOX1B SOLOX V603 GIDID DCT KAPIT L677 CVO L617 NOZ L551 GOMVA/N0457F360 L551 ANTAR UN133 ATFIR N133 LOMOS DCT PADGU DCT GESBA DCT ARCAZ DCT KOVEK DCT REDSI/N0447F370 DCT MEBAN
Aircraft A320/M-SDE3FGHIRWY/LB1

Departure

Time 2026-04-27 16:44
Airport Hurghada International Airport (HEGN)

Arrival

Time N/A
Airport Katowice Wojciech Korfanty International Airport (EPKT)
Time Latitude Longitude Altitude Speed Heading
2026-04-27 16:17 27.17956 33.80390 57 ft 0 kts 255°
2026-04-27 16:33 27.17962 33.80415 57 ft 2 kts 255°
2026-04-27 16:33 27.17966 33.80431 57 ft 2 kts 255°
2026-04-27 16:33 27.17969 33.80448 57 ft 2 kts 255°
2026-04-27 16:33 27.17973 33.80464 57 ft 2 kts 255°
2026-04-27 16:34 27.17975 33.80474 57 ft 1 kts 255°
2026-04-27 16:34 27.17982 33.80482 57 ft 1 kts 188°
2026-04-27 16:34 27.17989 33.80481 57 ft 1 kts 155°
2026-04-27 16:34 27.17993 33.80479 57 ft 0 kts 165°
2026-04-27 16:37 27.17985 33.80482 57 ft 3 kts 165°
2026-04-27 16:37 27.17947 33.80494 57 ft 7 kts 167°
2026-04-27 16:37 27.17878 33.80502 57 ft 12 kts 194°
2026-04-27 16:38 27.17832 33.80417 57 ft 15 kts 256°
2026-04-27 16:38 27.17790 33.80298 57 ft 17 kts 210°
2026-04-27 16:38 27.17665 33.80326 57 ft 20 kts 166°
2026-04-27 16:38 27.17518 33.80365 57 ft 22 kts 162°
2026-04-27 16:39 27.17428 33.80325 57 ft 16 kts 262°
2026-04-27 16:39 27.17404 33.80201 57 ft 16 kts 256°
2026-04-27 16:39 27.17374 33.80076 57 ft 18 kts 255°
2026-04-27 16:39 27.17336 33.79929 57 ft 20 kts 255°
2026-04-27 16:40 27.17297 33.79761 57 ft 23 kts 256°
2026-04-27 16:40 27.17252 33.79577 57 ft 25 kts 255°
2026-04-27 16:40 27.17127 33.79519 57 ft 22 kts 165°
2026-04-27 16:40 27.16977 33.79563 57 ft 21 kts 165°
2026-04-27 16:41 27.16833 33.79607 57 ft 21 kts 165°
2026-04-27 16:41 27.16691 33.79651 57 ft 20 kts 165°
2026-04-27 16:41 27.16553 33.79692 57 ft 20 kts 165°
2026-04-27 16:41 27.16420 33.79729 57 ft 19 kts 166°
2026-04-27 16:42 27.16287 33.79767 57 ft 19 kts 166°
2026-04-27 16:42 27.16165 33.79762 57 ft 16 kts 238°
2026-04-27 16:42 27.16152 33.79709 57 ft 6 kts 258°
2026-04-27 16:42 27.16142 33.79659 57 ft 7 kts 257°
2026-04-27 16:43 27.16172 33.79602 57 ft 11 kts 330°
2026-04-27 16:43 27.16258 33.79575 57 ft 15 kts 348°
2026-04-27 16:43 27.16465 33.79516 58 ft 60 kts 345°
2026-04-27 16:43 27.17084 33.79333 58 ft 121 kts 345°
2026-04-27 16:44 27.18054 33.79058 176 ft 159 kts 347°
2026-04-27 16:44 27.19118 33.78756 732 ft 161 kts 347°
2026-04-27 16:44 27.20222 33.78473 1313 ft 167 kts 348°
2026-04-27 16:44 27.21335 33.78192 2008 ft 167 kts 347°
2026-04-27 16:45 27.22514 33.77899 2396 ft 181 kts 349°
2026-04-27 16:45 27.23825 33.77711 2746 ft 199 kts 353°
2026-04-27 16:45 27.25259 33.77550 3089 ft 218 kts 353°
2026-04-27 16:45 27.26817 33.77371 3445 ft 238 kts 352°
2026-04-27 16:46 27.28533 33.77166 3942 ft 253 kts 352°
2026-04-27 16:46 27.30309 33.76948 4698 ft 258 kts 352°
2026-04-27 16:46 27.32092 33.76726 5484 ft 262 kts 351°
2026-04-27 16:46 27.33894 33.76498 6246 ft 266 kts 351°
2026-04-27 16:47 27.35753 33.76260 7016 ft 271 kts 351°
2026-04-27 16:47 27.37621 33.76020 7771 ft 276 kts 351°
2026-04-27 16:47 27.39532 33.75773 8520 ft 280 kts 351°
2026-04-27 16:47 27.41471 33.75523 9258 ft 285 kts 351°
2026-04-27 16:48 27.43463 33.75265 9991 ft 290 kts 351°
2026-04-27 16:48 27.45486 33.75002 10544 ft 301 kts 351°
2026-04-27 16:48 27.47621 33.74723 10884 ft 319 kts 351°
2026-04-27 16:49 27.52253 33.74121 11546 ft 352 kts 351°
2026-04-27 16:49 27.54716 33.73804 12153 ft 359 kts 351°
2026-04-27 16:49 27.57213 33.73486 12863 ft 362 kts 351°
2026-04-27 16:49 27.59732 33.73160 13547 ft 365 kts 350°
2026-04-27 16:50 27.62241 33.72789 14207 ft 369 kts 349°
2026-04-27 16:50 27.64780 33.72391 14857 ft 372 kts 349°
2026-04-27 16:50 27.67371 33.71983 15502 ft 375 kts 349°
2026-04-27 16:50 27.69963 33.71576 16128 ft 378 kts 348°
2026-04-27 16:51 27.72578 33.71167 16742 ft 382 kts 348°
2026-04-27 16:51 27.75182 33.70760 17336 ft 385 kts 348°
2026-04-27 16:51 27.77844 33.70345 17925 ft 388 kts 348°
2026-04-27 16:51 27.80506 33.69929 18496 ft 390 kts 348°
2026-04-27 16:52 27.83213 33.69507 19059 ft 393 kts 348°
2026-04-27 16:52 27.85926 33.69083 19606 ft 396 kts 348°
2026-04-27 16:52 27.88651 33.68658 20142 ft 399 kts 347°
2026-04-27 16:52 27.91401 33.68228 20668 ft 401 kts 347°
2026-04-27 16:53 27.94167 33.67796 21184 ft 404 kts 347°
2026-04-27 16:53 27.96952 33.67360 21689 ft 406 kts 347°
2026-04-27 16:53 27.99748 33.66922 22179 ft 409 kts 347°
2026-04-27 16:53 28.02600 33.66476 22666 ft 411 kts 347°
2026-04-27 16:54 28.05414 33.66035 23132 ft 414 kts 347°
2026-04-27 16:54 28.08272 33.65587 23591 ft 416 kts 347°
2026-04-27 16:54 28.11138 33.65138 24034 ft 418 kts 347°
2026-04-27 16:54 28.13987 33.64695 24457 ft 420 kts 347°
2026-04-27 16:55 28.16890 33.64243 24875 ft 422 kts 346°
2026-04-27 16:55 28.19752 33.63572 25270 ft 418 kts 337°
2026-04-27 16:55 28.22421 33.62323 25672 ft 411 kts 326°
2026-04-27 16:55 28.24788 33.60558 26058 ft 406 kts 317°
2026-04-27 16:56 28.26956 33.58538 26438 ft 407 kts 315°
2026-04-27 16:56 28.29113 33.56459 26780 ft 409 kts 315°
2026-04-27 16:56 28.31260 33.54383 27116 ft 410 kts 315°
2026-04-27 16:56 28.32722 33.52970 27396 ft 410 kts 315°